Weather History for Caribou, ME

Change the Weather History Date:

Saturday, March 16, 2013

  Actual Average Record
Temperature  
Mean Temperature 19 °F 24 °F  
Max Temperature 26 °F 34 °F 57 °F (2010)
Min Temperature 12 °F 15 °F -6 °F (1963)
Degree Days  
Heating Degree Days 46 41  
Month to date heating degree days 532 696  
Since 1 July heating degree days 6680 7417  
Cooling Degree Days 0 0  
Month to date cooling degree days 0 0  
Year to date cooling degree days 0 0  
Moisture  
Dew Point 4 °F    
Average Humidity 55    
Maximum Humidity 73    
Minimum Humidity 36    
Precipitation  
Precipitation 0.00 in 0.08 in 1.06 in (1953)
Month to date precipitation 0.59 1.30  
Year to date precipitation 5.96 6.22  
Snow  
Snow 0.00 in 0.60 in 14.50 in (1953)
Month to date snowfall 2.6 11.0  
Since 1 July snowfall 90.0 93.5  
Snow Depth 4.00 in    
Sea Level Pressure  
Sea Level Pressure 29.71 in    
Wind  
Wind Speed 10 mph (NW)    
Max Wind Speed 18 mph    
Max Gust Speed 22 mph    
Visibility 10 miles    
Events      
T = Trace of Precipitation, MM = Missing Value Source: NWS Daily Summary

Daily Weather History Graph

Daily Weather History Graph

Search for Another Location

Airport:

Trip Planner

Search our weather history database for the weather conditions in past years. The results will help you decide how hot, cold, wet, or windy it might be!

Date:

Astronomy

Mar. 16, 2013 Rise Set
Actual Time 6:42 AM EDT 6:39 PM EDT
Civil Twilight 6:12 AM EDT 7:09 PM EDT
Nautical Twilight 5:36 AM EDT 7:45 PM EDT
Astronomical Twilight 5:00 AM EDT 8:21 PM EDT
Moon 8:50 AM EDT (3/16) No Moon Set
Length of Visible Light 12h 57m
Length of Day
11h 56m
Waxing Crescent, 23% of the Moon is Illuminated
Mar 16
Waxing Crescent
Mar 19
First Quarter
Mar 27
Full
Apr 3
Last Quarter
Apr 10
New

Hourly Weather History & Observations

Time (EDT) Temp. Windchill Dew Point Humidity Pressure Visibility Wind Dir Wind Speed Gust Speed Precip Events Conditions
12:54 AM 15.1 °F 6.4 °F 7.0 °F 70% 29.62 in 10.0 mi NW 5.8 mph - N/A   Scattered Clouds
1:54 AM 15.1 °F 6.4 °F 6.1 °F 68% 29.62 in 10.0 mi NW 5.8 mph - N/A   Clear
2:54 AM 16.0 °F 5.3 °F 7.0 °F 68% 29.63 in 10.0 mi NW 8.1 mph - N/A   Clear
3:54 AM 16.0 °F 4.4 °F 6.1 °F 65% 29.64 in 10.0 mi NW 9.2 mph - N/A   Clear
4:54 AM 15.1 °F 3.3 °F 5.0 °F 64% 29.65 in 10.0 mi WNW 9.2 mph - N/A   Clear
5:54 AM 12.9 °F 1.6 °F 5.0 °F 71% 29.67 in 10.0 mi WNW 8.1 mph - N/A   Clear
6:54 AM 12.9 °F 0.7 °F 5.0 °F 71% 29.69 in 10.0 mi WNW 9.2 mph - N/A   Clear
7:54 AM 14.0 °F 2.9 °F 6.1 °F 71% 29.71 in 10.0 mi WNW 8.1 mph - N/A   Clear
8:54 AM 16.0 °F 0.1 °F 6.1 °F 65% 29.72 in 10.0 mi NNW 17.3 mph - N/A   Clear
9:54 AM 19.0 °F 6.1 °F 6.1 °F 57% 29.71 in 10.0 mi NW 12.7 mph - N/A   Clear
10:54 AM 19.9 °F 6.2 °F 5.0 °F 52% 29.71 in 10.0 mi NNW 15.0 mph - N/A   Partly Cloudy
11:54 AM 21.0 °F 8.6 °F 6.1 °F 53% 29.71 in 10.0 mi NW 12.7 mph - N/A   Scattered Clouds
12:54 PM 23.0 °F 13.1 °F 3.9 °F 44% 29.72 in 10.0 mi WNW 9.2 mph 18.4 mph N/A   Clear
1:54 PM 24.1 °F 14.4 °F 3.9 °F 42% 29.70 in 10.0 mi NW 9.2 mph - N/A   Clear
2:54 PM 25.0 °F 17.1 °F 3.0 °F 39% 29.70 in 10.0 mi NW 6.9 mph 18.4 mph N/A   Clear
3:54 PM 25.0 °F 12.6 °F 3.0 °F 39% 29.71 in 10.0 mi NW 15.0 mph 20.7 mph N/A   Clear
4:54 PM 25.0 °F 13.6 °F 1.9 °F 37% 29.72 in 10.0 mi NNW 12.7 mph - N/A   Clear
5:54 PM 23.0 °F 11.1 °F 1.0 °F 39% 29.73 in 10.0 mi NNW 12.7 mph - N/A   Clear
6:54 PM 21.9 °F 10.4 °F 1.9 °F 42% 29.75 in 10.0 mi NNW 11.5 mph - N/A   Clear
7:54 PM 19.9 °F 11.1 °F 1.0 °F 44% 29.78 in 10.0 mi NW 6.9 mph - N/A   Clear
8:54 PM 19.0 °F 10.0 °F 1.9 °F 47% 29.79 in 10.0 mi NNW 6.9 mph - N/A   Clear
9:54 PM 17.1 °F 10.0 °F 1.9 °F 52% 29.81 in 10.0 mi NW 4.6 mph - N/A   Clear
10:54 PM 16.0 °F 4.4 °F 3.0 °F 57% 29.82 in 10.0 mi NNW 9.2 mph - N/A   Clear
11:54 PM 14.0 °F 3.9 °F 1.9 °F 59% 29.84 in 10.0 mi NW 6.9 mph - N/A   Clear